Dades meteomassalio
Diari Summary for Maig 28, 2017 Units:  Metric    English   Both
« Previous Day
Next Day »
Diari Semanal Mensual Anual Personalitzat
  Maxima: Minima: Mijana:
Temperatura: -17.8 °C -10.3 °C -5.7 °C
Rosada: -17.8 °C -11.3 °C -10.1 °C
Humitat: Humidity % 39 % 63 %
Velocitat del vent: 0 km/h 0 km/h 17.9 km/h
Racha vent: 0 km/h - -
Vent:- - ESE
Pressio: 0 hPa 34361.1 hPa -
Pluja: 0 mm    
Historical Graphs
 
 
Tabular Data for Maig 28, 2017
Time Temperature Dew Point Pressure Wind Wind Speed Wind Gust Humidity Rainfall Rate (Hourly) solar Conditions
-17.8 °C -17.8 °C 0 hPa Calm     Humidity % 0 mm SolarRadiationWatts/m^2 W/m2 Conditions
00:04 -6.9 °C -9.3 °C 34428.8 hPa Calm     76 % 0 mm 0.0 W/m2 CLR
00:09 -6.9 °C -9.3 °C 34428.8 hPa Calm     76 % 0 mm 0.0 W/m2 CLR
00:14 -7 °C -9.4 °C 34428.8 hPa Calm     76 % 0 mm 0.0 W/m2 CLR
00:19 -7 °C -9.3 °C 34442.4 hPa Calm     77 % 0 mm 0.0 W/m2 CLR
00:24 -7.1 °C -9.2 °C 34442.4 hPa Calm     78 % 0 mm 0.0 W/m2 CLR
00:29 -7.1 °C -9.2 °C 34442.4 hPa Calm     78 % 0 mm 0.0 W/m2 CLR
00:34 -7.1 °C -9.3 °C 34442.4 hPa Calm     78 % 0 mm 0.0 W/m2 CLR
00:39 -7.1 °C -9.2 °C 34442.4 hPa Calm     79 % 0 mm 0.0 W/m2 CLR
00:44 -7.2 °C -9.3 °C 34442.4 hPa Calm     79 % 0 mm 0.0 W/m2 CLR
00:49 -7.2 °C -9.3 °C 34442.4 hPa Calm     79 % 0 mm 0.0 W/m2 CLR
00:54 -7.3 °C -9.3 °C 34442.4 hPa Calm     79 % 0 mm 0.0 W/m2 CLR
00:59 -7.3 °C -9.4 °C 34442.4 hPa Calm     79 % 0 mm 0.0 W/m2 CLR
01:04 -7.4 °C -9.5 °C 34442.4 hPa Calm     79 % 0 mm 0.0 W/m2 CLR
01:09 -7.5 °C -9.4 °C 34442.4 hPa Calm     80 % 0 mm 0.0 W/m2 CLR
01:14 -7.7 °C -9.6 °C 34442.4 hPa Calm     80 % 0 mm 0.0 W/m2 CLR
01:19 -7.7 °C -9.4 °C 34442.4 hPa Calm     82 % 0 mm 0.0 W/m2 CLR
01:24 -7.6 °C -9.3 °C 34442.4 hPa Calm     82 % 0 mm 0.0 W/m2 CLR
01:29 -7.4 °C -9.2 °C 34442.4 hPa ESE 9 km/h 9 km/h 82 % 0 mm 0.0 W/m2 CLR
01:34 -7.4 °C -9.3 °C 34442.4 hPa ESE 3.1 km/h 3.1 km/h 81 % 0 mm 0.0 W/m2 CLR
01:39 -7.4 °C -9.2 °C 34442.4 hPa Calm     81 % 0 mm 0.0 W/m2 CLR
01:44 -7.4 °C -9.3 °C 34442.4 hPa Calm     81 % 0 mm 0.0 W/m2 CLR
01:49 -7.4 °C -9.4 °C 34442.4 hPa Calm     80 % 0 mm 0.0 W/m2 CLR
01:54 -7.6 °C -9.5 °C 34442.4 hPa Calm     80 % 0 mm 0.0 W/m2 CLR
01:59 -7.6 °C -9.6 °C 34442.4 hPa Calm     80 % 0 mm 0.0 W/m2 CLR
02:04 -7.7 °C -9.7 °C 34428.8 hPa Calm     80 % 0 mm 0.0 W/m2 CLR
02:09 -7.9 °C -9.8 °C 34428.8 hPa Calm     80 % 0 mm 0.0 W/m2 CLR
02:14 -7.9 °C -9.6 °C 34428.8 hPa Calm     82 % 0 mm 0.0 W/m2 CLR
02:19 -7.9 °C -9.6 °C 34428.8 hPa Calm     82 % 0 mm 0.0 W/m2 CLR
02:24 -7.8 °C -9.6 °C 34428.8 hPa Calm     82 % 0 mm 0.0 W/m2 CLR
02:29 -7.9 °C -9.6 °C 34428.8 hPa Calm     82 % 0 mm 0.0 W/m2 CLR
02:34 -7.9 °C -9.6 °C 34428.8 hPa Calm     82 % 0 mm 0.0 W/m2 CLR
02:39 -7.9 °C -9.6 °C 34428.8 hPa Calm     82 % 0 mm 0.0 W/m2 CLR
02:44 -7.9 °C -9.6 °C 34428.8 hPa Calm     82 % 0 mm 0.0 W/m2 CLR
02:49 -7.9 °C -9.7 °C 34428.8 hPa Calm     81 % 0 mm 0.0 W/m2 CLR
02:54 -8.1 °C -10 °C 34428.8 hPa Calm     80 % 0 mm 0.0 W/m2 CLR
02:59 -8.2 °C -10.1 °C 34428.8 hPa Calm     81 % 0 mm 0.0 W/m2 CLR
03:04 -8.3 °C -10.1 °C 34428.8 hPa Calm     82 % 0 mm 0.0 W/m2 CLR
03:09 -8.4 °C -10.1 °C 34428.8 hPa Calm     82 % 0 mm 0.0 W/m2 CLR
03:14 -8.4 °C -10.1 °C 34428.8 hPa Calm     83 % 0 mm 0.0 W/m2 CLR
03:19 -8.5 °C -10.2 °C 34428.8 hPa Calm     82 % 0 mm 0.0 W/m2 CLR
03:24 -8.7 °C -10.4 °C 34428.8 hPa Calm     81 % 0 mm 0.0 W/m2 CLR
03:30 -8.7 °C -10.4 °C 34428.8 hPa Calm     82 % 0 mm 0.0 W/m2 CLR
03:35 -8.8 °C -10.4 °C 34428.8 hPa Calm     83 % 0 mm 0.0 W/m2 CLR
03:40 -8.8 °C -10.5 °C 34428.8 hPa Calm     82 % 0 mm 0.0 W/m2 CLR
03:45 -8.8 °C -10.4 °C 34428.8 hPa Calm     83 % 0 mm 0.0 W/m2 CLR
03:50 -8.9 °C -10.6 °C 34428.8 hPa Calm     83 % 0 mm 0.0 W/m2 CLR
03:55 -9 °C -10.6 °C 34428.8 hPa Calm     83 % 0 mm 0.0 W/m2 CLR
04:05 -9.2 °C -10.8 °C 34428.8 hPa Calm     83 % 0 mm 0.0 W/m2 CLR
04:10 -9.2 °C -10.7 °C 34428.8 hPa Calm     84 % 0 mm 0.0 W/m2 CLR
04:15 -9.2 °C -10.7 °C 34428.8 hPa Calm     84 % 0 mm 0.0 W/m2 CLR
04:20 -9.2 °C -10.7 °C 34428.8 hPa Calm     84 % 0 mm 0.0 W/m2 CLR
04:25 -9.3 °C -10.7 °C 34428.8 hPa Calm     85 % 0 mm 0.0 W/m2 CLR
04:30 -9.3 °C -10.7 °C 34428.8 hPa Calm     85 % 0 mm 0.0 W/m2 CLR
04:35 -9.3 °C -10.7 °C 34428.8 hPa Calm     85 % 0 mm 0.0 W/m2 CLR
04:40 -9.4 °C -10.7 °C 34428.8 hPa Calm     86 % 0 mm 0.0 W/m2 CLR
04:45 -9.3 °C -10.7 °C 34428.8 hPa Calm     86 % 0 mm 0.0 W/m2 CLR
04:46 -9.3 °C -10.7 °C 34428.8 hPa Calm     86 % 0 mm 0.0 W/m2 CLR
04:51 -9.4 °C -10.7 °C 34428.8 hPa Calm     86 % 0 mm 0.0 W/m2 CLR
04:56 -9.4 °C -10.8 °C 34428.8 hPa Calm     85 % 0 mm 0.0 W/m2 CLR
05:01 -9.5 °C -10.8 °C 34428.8 hPa Calm     86 % 0 mm 0.0 W/m2 CLR
05:06 -9.5 °C -10.7 °C 34428.8 hPa Calm     87 % 0 mm 0.0 W/m2 CLR
05:11 -9.6 °C -10.8 °C 34428.8 hPa Calm     86 % 0 mm 0.0 W/m2 CLR
05:16 -9.6 °C -10.9 °C 34428.8 hPa Calm     86 % 0 mm 0.0 W/m2 CLR
05:21 -9.7 °C -10.9 °C 34428.8 hPa Calm     87 % 0 mm 0.0 W/m2 CLR
05:26 -9.7 °C -10.9 °C 34428.8 hPa Calm     87 % 0 mm 0.0 W/m2 CLR
05:31 -9.7 °C -10.9 °C 34428.8 hPa Calm     87 % 0 mm 0.0 W/m2 CLR
05:36 -9.8 °C -10.9 °C 34428.8 hPa Calm     87 % 0 mm 0.0 W/m2 CLR
05:41 -9.8 °C -10.9 °C 34442.4 hPa Calm     87 % 0 mm 0.0 W/m2 CLR
05:46 -9.8 °C -10.9 °C 34442.4 hPa Calm     88 % 0 mm 0.0 W/m2 CLR
05:51 -9.8 °C -10.9 °C 34442.4 hPa Calm     88 % 0 mm 0.0 W/m2 CLR
05:56 -9.8 °C -11 °C 34442.4 hPa Calm     87 % 0 mm 0.0 W/m2 CLR
06:01 -9.9 °C -11.1 °C 34442.4 hPa Calm     87 % 0 mm 0.0 W/m2 CLR
06:06 -9.9 °C -11.2 °C 34442.4 hPa Calm     87 % 0 mm 0.0 W/m2 CLR
06:11 -10.1 °C -11.2 °C 34442.4 hPa Calm     87 % 0 mm 0.0 W/m2 CLR
06:16 -10.1 °C -11.3 °C 34442.4 hPa Calm     87 % 0 mm 0.0 W/m2 CLR
06:21 -10.2 °C -11.3 °C 34442.4 hPa Calm     87 % 0 mm 0.0 W/m2 OVC
06:26 -10.2 °C -11.3 °C 34452.6 hPa Calm     87 % 0 mm 5.0 W/m2 OVC
06:31 -10.2 °C -11.3 °C 34452.6 hPa Calm     88 % 0 mm 7.0 W/m2 OVC
06:33 -10.2 °C -11.3 °C 34452.6 hPa Calm     88 % 0 mm 9.0 W/m2 OVC
06:38 -10.3 °C -11.3 °C 34452.6 hPa Calm     88 % 0 mm 14.0 W/m2 BKN
06:43 -10.3 °C -11.3 °C 34452.6 hPa Calm     88 % 0 mm 25.0 W/m2 BKN
06:44 -10.3 °C -11.3 °C 34452.6 hPa Calm     88 % 0 mm 26.0 W/m2 BKN
06:49 -10.3 °C -11.3 °C 34452.6 hPa Calm     88 % 0 mm 32.0 W/m2 BKN
06:54 -10.3 °C -11.3 °C 34452.6 hPa Calm     88 % 0 mm 37.0 W/m2 BKN
06:59 -10.2 °C -11.3 °C 34452.6 hPa Calm     88 % 0 mm 44.0 W/m2 BKN
07:04 -10.2 °C -11.3 °C 34452.6 hPa Calm     88 % 0 mm 54.0 W/m2 SCT
07:09 -10.2 °C -11.2 °C 34462.7 hPa Calm     88 % 0 mm 65.0 W/m2 SCT
07:14 -10.1 °C -11.2 °C 34452.6 hPa Calm     88 % 0 mm 83.0 W/m2 FEW
07:19 -10.1 °C -11.1 °C 34462.7 hPa Calm     88 % 0 mm 84.0 W/m2 FEW
07:24 -9.9 °C -11 °C 34462.7 hPa Calm     88 % 0 mm 102.0 W/m2 CLR
07:34 -9.7 °C -11 °C 34462.7 hPa Calm     86 % 0 mm 121.0 W/m2 CLR
07:39 -9.6 °C -10.9 °C 34462.7 hPa Calm     86 % 0 mm 128.0 W/m2 CLR
07:44 -9.4 °C -10.7 °C 34462.7 hPa Calm     86 % 0 mm 128.0 W/m2 CLR
07:49 -9.3 °C -10.7 °C 34462.7 hPa Calm     85 % 0 mm 134.0 W/m2 CLR
07:54 -9.2 °C -10.7 °C 34462.7 hPa Calm     84 % 0 mm 132.0 W/m2 CLR
07:59 -9.1 °C -10.6 °C 34462.7 hPa Calm     84 % 0 mm 148.0 W/m2 CLR
08:04 -8.9 °C -10.5 °C 34462.7 hPa Calm     83 % 0 mm 142.0 W/m2 CLR
08:09 -8.7 °C -10.4 °C 34462.7 hPa Calm     82 % 0 mm 134.0 W/m2 CLR
08:14 -8.6 °C -10.4 °C 34462.7 hPa Calm     81 % 0 mm 165.0 W/m2 CLR
08:19 -8.5 °C -10.3 °C 34462.7 hPa Calm     81 % 0 mm 188.0 W/m2 CLR
08:24 -8.3 °C -10.3 °C 34462.7 hPa Calm     80 % 0 mm 206.0 W/m2 CLR
08:29 -8.1 °C -10.1 °C 34462.7 hPa Calm     80 % 0 mm 227.0 W/m2 CLR
08:34 -7.8 °C -9.8 °C 34462.7 hPa Calm     80 % 0 mm 287.0 W/m2 CLR
08:39 -7.4 °C -9.6 °C 34462.7 hPa Calm     79 % 0 mm 304.0 W/m2 CLR
08:44 -7 °C -9.6 °C 34462.7 hPa Calm     75 % 0 mm 315.0 W/m2 CLR
08:49 -6.7 °C -9.4 °C 34462.7 hPa Calm     73 % 0 mm 353.0 W/m2 CLR
08:51 -6.6 °C -9.5 °C 34462.7 hPa Calm     72 % 0 mm 360.0 W/m2 CLR
08:56 -6.4 °C -9.3 °C 34462.7 hPa Calm     72 % 0 mm 355.0 W/m2 CLR
09:01 -6.2 °C -9.3 °C 34462.7 hPa Calm     71 % 0 mm 374.0 W/m2 CLR
09:06 -5.9 °C -9.3 °C 34462.7 hPa Calm     69 % 0 mm 424.0 W/m2 CLR
09:11 -5.7 °C -9.1 °C 34462.7 hPa Calm     68 % 0 mm 394.0 W/m2 CLR
09:16 -5.4 °C -9 °C 34462.7 hPa Calm     67 % 0 mm 387.0 W/m2 CLR
09:21 -5.3 °C -9.1 °C 34476.3 hPa Calm     65 % 0 mm 408.0 W/m2 CLR
09:26 -5.3 °C -9 °C 34476.3 hPa Calm     66 % 0 mm 323.0 W/m2 CLR
09:31 -5.3 °C -9.1 °C 34462.7 hPa Calm     65 % 0 mm 388.0 W/m2 CLR
09:36 -5.2 °C -8.9 °C 34462.7 hPa Calm     66 % 0 mm 434.0 W/m2 CLR
09:41 -5.2 °C -8.9 °C 34462.7 hPa East 20.9 km/h 20.9 km/h 66 % 0 mm 434.0 W/m2 CLR
09:51 -5.1 °C -8.8 °C 34476.3 hPa East 7.7 km/h 7.7 km/h 66 % 0 mm 501.0 W/m2 CLR
09:56 -4.9 °C -8.8 °C 34462.7 hPa ESE 11.9 km/h 11.9 km/h 65 % 0 mm 468.0 W/m2 CLR
10:01 -4.8 °C -8.8 °C 34462.7 hPa East 15 km/h   64 % 0 mm 489.0 W/m2 CLR
10:06 -4.7 °C -8.7 °C 34476.3 hPa ENE 15 km/h 15 km/h 64 % 0 mm 566.0 W/m2 CLR
10:11 -4.5 °C -9.1 °C 34462.7 hPa ENE 15 km/h 15 km/h 60 % 0 mm 557.0 W/m2 CLR
10:16 -4.5 °C -9.1 °C 34462.7 hPa East 17.9 km/h 17.9 km/h 60 % 0 mm 550.0 W/m2 CLR
10:21 -4.4 °C -9.3 °C 34476.3 hPa ESE 23.8 km/h 23.8 km/h 58 % 0 mm 436.0 W/m2 CLR
10:26 -4.4 °C -9.3 °C 34462.7 hPa SE 23.8 km/h 23.8 km/h 58 % 0 mm 677.0 W/m2 CLR
10:31 -4.3 °C -9.2 °C 34476.3 hPa ESE 26.9 km/h 26.9 km/h 58 % 0 mm 657.0 W/m2 CLR
10:36 -4.3 °C -9.3 °C 34462.7 hPa ESE 29.8 km/h 29.8 km/h 57 % 0 mm 647.0 W/m2 CLR
10:41 -4.2 °C -9.4 °C 34462.7 hPa SE 29.8 km/h 29.8 km/h 56 % 0 mm 461.0 W/m2 CLR
10:46 -4.2 °C -9.2 °C 34462.7 hPa ESE 29.8 km/h 29.8 km/h 57 % 0 mm 517.0 W/m2 CLR
10:51 -4.3 °C -9.3 °C 34462.7 hPa East 23.8 km/h 23.8 km/h 57 % 0 mm 434.0 W/m2 CLR
10:56 -4.2 °C -9.2 °C 34462.7 hPa ESE 23.8 km/h 23.8 km/h 57 % 0 mm 640.0 W/m2 CLR
11:01 -4.1 °C -9.3 °C 34462.7 hPa SE 23.8 km/h 23.8 km/h 56 % 0 mm 645.0 W/m2 CLR
11:06 -3.9 °C -9.3 °C 34462.7 hPa ENE 29.8 km/h 29.8 km/h 55 % 0 mm 596.0 W/m2 CLR
11:11 -3.8 °C -9.2 °C 34462.7 hPa ESE 29.8 km/h 29.8 km/h 55 % 0 mm 598.0 W/m2 CLR
11:16 -3.8 °C -9.3 °C 34462.7 hPa ENE 23.8 km/h 23.8 km/h 54 % 0 mm 796.0 W/m2 CLR
11:21 -3.7 °C -9.6 °C 34462.7 hPa East 35.7 km/h 35.7 km/h 52 % 0 mm 724.0 W/m2 CLR
11:26 -3.6 °C -9.4 °C 34462.7 hPa SE 26.9 km/h 26.9 km/h 52 % 0 mm 700.0 W/m2 CLR
11:31 -3.5 °C -9.4 °C 34462.7 hPa ESE 20.9 km/h 20.9 km/h 52 % 0 mm 638.0 W/m2 CLR
11:36 -3.5 °C -9.6 °C 34462.7 hPa ESE 29.8 km/h 29.8 km/h 51 % 0 mm 497.0 W/m2 CLR
11:41 -3.6 °C -9.4 °C 34462.7 hPa ESE 32.8 km/h 32.8 km/h 52 % 0 mm 606.0 W/m2 CLR
11:46 -3.7 °C -9.6 °C 34462.7 hPa ENE 29.8 km/h 29.8 km/h 52 % 0 mm 768.0 W/m2 CLR
11:51 -3.7 °C -9.6 °C 34462.7 hPa East 35.7 km/h 35.7 km/h 52 % 0 mm 796.0 W/m2 CLR
11:56 -3.6 °C -9.6 °C 34452.6 hPa ENE 33.6 km/h 33.6 km/h 51 % 0 mm 812.0 W/m2 CLR
12:01 -3.5 °C -9.6 °C 34452.6 hPa East 35.7 km/h 35.7 km/h 51 % 0 mm 830.0 W/m2 CLR
12:06 -3.4 °C -9.8 °C 34452.6 hPa East 35.7 km/h 35.7 km/h 49 % 0 mm 795.0 W/m2 CLR
12:11 -3.4 °C -9.6 °C 34452.6 hPa ESE 29.8 km/h 29.8 km/h 50 % 0 mm 819.0 W/m2 CLR
12:16 -3.2 °C -9.8 °C 34452.6 hPa ESE 50.7 km/h 50.7 km/h 48 % 0 mm 831.0 W/m2 CLR
12:21 -3.3 °C -9.9 °C 34442.4 hPa East 44.7 km/h 44.7 km/h 48 % 0 mm 840.0 W/m2 CLR
12:27 -3.2 °C -10 °C 34442.4 hPa ENE 50.7 km/h 50.7 km/h 47 % 0 mm 847.0 W/m2 CLR
12:32 -3.1 °C -10.1 °C 34442.4 hPa ESE 29.8 km/h 29.8 km/h 46 % 0 mm 875.0 W/m2 CLR
12:33 -3.2 °C -10.1 °C 34442.4 hPa East 47.6 km/h 47.6 km/h 46 % 0 mm 882.0 W/m2 CLR
12:38 -3 °C -9.8 °C 34442.4 hPa ESE 35.7 km/h 35.7 km/h 47 % 0 mm 886.0 W/m2 CLR
12:43 -2.9 °C -10.1 °C 34442.4 hPa East 35.7 km/h 35.7 km/h 45 % 0 mm 889.0 W/m2 CLR
12:48 -2.7 °C -10.3 °C 34442.4 hPa ESE 35.7 km/h 35.7 km/h 43 % 0 mm 886.0 W/m2 CLR
12:53 -2.8 °C -10.2 °C 34442.4 hPa SE 41.7 km/h 41.7 km/h 44 % 0 mm 891.0 W/m2 CLR
12:58 -2.8 °C -10.4 °C 34428.8 hPa East 50.7 km/h 50.7 km/h 43 % 0 mm 902.0 W/m2 CLR
13:03 -2.7 °C -10.3 °C 34428.8 hPa ESE 44.7 km/h 44.7 km/h 43 % 0 mm 909.0 W/m2 CLR
13:08 -2.7 °C -10.3 °C 34428.8 hPa ESE 56.6 km/h 56.6 km/h 43 % 0 mm 914.0 W/m2 CLR
13:13 -2.6 °C -10.2 °C 34428.8 hPa SE 38.8 km/h 38.8 km/h 43 % 0 mm 918.0 W/m2 CLR
13:18 -2.6 °C -10.4 °C 34428.8 hPa East 51.8 km/h 51.8 km/h 42 % 0 mm 923.0 W/m2 CLR
13:23 -2.5 °C -10.3 °C 34428.8 hPa SE 50.7 km/h 50.7 km/h 42 % 0 mm 928.0 W/m2 CLR
13:28 -2.4 °C -10.2 °C 34428.8 hPa East 41.7 km/h 41.7 km/h 42 % 0 mm 935.0 W/m2 CLR
13:33 -2.3 °C -10.3 °C 34418.7 hPa ESE 38.8 km/h 38.8 km/h 41 % 0 mm 939.0 W/m2 CLR
13:38 -2.2 °C -10.3 °C 34418.7 hPa ESE 38.8 km/h 38.8 km/h 41 % 0 mm 940.0 W/m2 CLR
13:43 -2.3 °C -10.3 °C 34428.8 hPa ESE 50.7 km/h 50.7 km/h 41 % 0 mm 947.0 W/m2 CLR
13:48 -2.4 °C -10.2 °C 34428.8 hPa ESE 47.6 km/h 47.6 km/h 42 % 0 mm 958.0 W/m2 CLR
13:53 -2.4 °C -10.2 °C 34418.7 hPa SE 36.2 km/h 36.2 km/h 42 % 0 mm 983.0 W/m2 CLR
13:58 -2.3 °C -10.2 °C 34418.7 hPa ESE 44.7 km/h 44.7 km/h 42 % 0 mm 633.0 W/m2 CLR
14:03 -2.3 °C -10.3 °C 34418.7 hPa SE 50.7 km/h 50.7 km/h 41 % 0 mm 926.0 W/m2 CLR
14:08 -2.3 °C -10.3 °C 34405.1 hPa ESE 38.8 km/h 38.8 km/h 41 % 0 mm 939.0 W/m2 CLR
14:13 -2.1 °C -10.6 °C 34405.1 hPa ESE 59.5 km/h 59.5 km/h 39 % 0 mm 925.0 W/m2 CLR
14:18 -2.2 °C -10.4 °C 34405.1 hPa East 41.7 km/h 41.7 km/h 40 % 0 mm 933.0 W/m2 CLR
14:23 -2.3 °C -10.3 °C 34405.1 hPa SE 36.2 km/h 36.2 km/h 41 % 0 mm 953.0 W/m2 CLR
14:28 -2.1 °C -10.3 °C 34405.1 hPa ESE 35.7 km/h 35.7 km/h 40 % 0 mm 949.0 W/m2 CLR
14:33 -2 °C -10.3 °C 34405.1 hPa SE 44.7 km/h 44.7 km/h 40 % 0 mm 914.0 W/m2 CLR
14:38 -2.2 °C -10.4 °C 34405.1 hPa SE 50.7 km/h 50.7 km/h 40 % 0 mm 914.0 W/m2 CLR
14:39 -2.2 °C -10.4 °C 34405.1 hPa ESE 51.8 km/h 51.8 km/h 40 % 0 mm 907.0 W/m2 CLR
14:44 -2.3 °C -10.3 °C 34405.1 hPa East 41.7 km/h 41.7 km/h 41 % 0 mm 907.0 W/m2 CLR
14:49 -2.3 °C -10.4 °C 34405.1 hPa SE 41.7 km/h 41.7 km/h 41 % 0 mm 904.0 W/m2 CLR
14:54 -2.3 °C -10.3 °C 34395 hPa East 47.6 km/h 47.6 km/h 41 % 0 mm 902.0 W/m2 CLR
14:59 -2.3 °C -10.3 °C 34395 hPa SE 50.7 km/h 50.7 km/h 41 % 0 mm 888.0 W/m2 CLR
15:04 -2.2 °C -10.3 °C 34405.1 hPa SE 35.7 km/h 35.7 km/h 41 % 0 mm 875.0 W/m2 CLR
15:09 -2.2 °C -10.4 °C 34395 hPa ESE 38.8 km/h 38.8 km/h 40 % 0 mm 886.0 W/m2 CLR
15:14 -2.1 °C -10.4 °C 34395 hPa SE 47.6 km/h 47.6 km/h 40 % 0 mm 868.0 W/m2 CLR
15:19 -2.1 °C -10.4 °C 34395 hPa ESE 41.7 km/h 41.7 km/h 40 % 0 mm 868.0 W/m2 CLR
15:24 -2.1 °C -10.4 °C 34395 hPa ESE 38.8 km/h 38.8 km/h 40 % 0 mm 886.0 W/m2 CLR
15:29 -2.1 °C -10.6 °C 34395 hPa ESE 59.5 km/h 59.5 km/h 39 % 0 mm 872.0 W/m2 CLR
15:34 -2.2 °C -10.4 °C 34395 hPa East 29.8 km/h 29.8 km/h 40 % 0 mm 868.0 W/m2 CLR
15:39 -2.1 °C -10.3 °C 34395 hPa East 35.7 km/h 35.7 km/h 40 % 0 mm 863.0 W/m2 CLR
15:44 -2.1 °C -10.4 °C 34395 hPa ESE 33.6 km/h 33.6 km/h 40 % 0 mm 867.0 W/m2 CLR
15:49 -2.1 °C -10.6 °C 34395 hPa East 53.6 km/h 53.6 km/h 39 % 0 mm 798.0 W/m2 CLR
15:54 -2.1 °C -10.5 °C 34384.8 hPa East 50.7 km/h 50.7 km/h 39 % 0 mm 870.0 W/m2 CLR
15:59 -2.1 °C -10.4 °C 34384.8 hPa SE 50.7 km/h 50.7 km/h 40 % 0 mm 856.0 W/m2 CLR
16:04 -2.1 °C -10.3 °C 34384.8 hPa SE 38.8 km/h 38.8 km/h 40 % 0 mm 830.0 W/m2 CLR
16:09 -1.9 °C -10.2 °C 34384.8 hPa East 41.7 km/h 41.7 km/h 40 % 0 mm 789.0 W/m2 CLR
16:14 -2 °C -10.3 °C 34384.8 hPa ESE 41.7 km/h 41.7 km/h 40 % 0 mm 777.0 W/m2 CLR
16:19 -2.1 °C -10.2 °C 34384.8 hPa ESE 44.7 km/h 44.7 km/h 41 % 0 mm 772.0 W/m2 CLR
16:24 -2.2 °C -10.2 °C 34384.8 hPa ESE 53.6 km/h 53.6 km/h 41 % 0 mm 786.0 W/m2 CLR
16:29 -2.2 °C -9.8 °C 34384.8 hPa SE 50.7 km/h 50.7 km/h 43 % 0 mm 793.0 W/m2 CLR
16:34 -2 °C -9.8 °C 34384.8 hPa SE 44.7 km/h 44.7 km/h 42 % 0 mm 791.0 W/m2 CLR
16:39 -1.8 °C -9.7 °C 34384.8 hPa ESE 32.8 km/h 32.8 km/h 42 % 0 mm 747.0 W/m2 CLR
16:44 -2 °C -9.7 °C 34384.8 hPa SE 50.7 km/h 50.7 km/h 43 % 0 mm 563.0 W/m2 CLR
16:49 -2.2 °C -9.8 °C 34384.8 hPa SSE 53.6 km/h 53.6 km/h 43 % 0 mm 610.0 W/m2 CLR
16:54 -2.2 °C -9.8 °C 34384.8 hPa SE 44.7 km/h 44.7 km/h 43 % 0 mm 612.0 W/m2 CLR
16:59 -2.3 °C -9.7 °C 34384.8 hPa SSE 50.7 km/h 50.7 km/h 44 % 0 mm 568.0 W/m2 CLR
17:04 -2.3 °C -9.6 °C 34384.8 hPa SE 44.7 km/h 44.7 km/h 45 % 0 mm 613.0 W/m2 CLR
17:09 -2.4 °C -9.6 °C 34384.8 hPa ESE 38.8 km/h 38.8 km/h 45 % 0 mm 524.0 W/m2 CLR
17:14 -2.6 °C -9.8 °C 34384.8 hPa ESE 44.7 km/h 44.7 km/h 45 % 0 mm 404.0 W/m2 CLR
17:19 -2.7 °C -9.7 °C 34384.8 hPa SE 41.7 km/h 41.7 km/h 46 % 0 mm 443.0 W/m2 CLR
17:24 -2.6 °C -9.4 °C 34384.8 hPa SE 41.4 km/h 41.4 km/h 47 % 0 mm 519.0 W/m2 CLR
17:30 -2.6 °C -9.4 °C 34384.8 hPa SSE 41.7 km/h 41.7 km/h 47 % 0 mm 410.0 W/m2 CLR
17:35 -2.7 °C -9.6 °C 34384.8 hPa East 47.6 km/h 47.6 km/h 47 % 0 mm 285.0 W/m2 CLR
17:36 -2.7 °C -9.6 °C 34384.8 hPa ESE 50.7 km/h 50.7 km/h 47 % 0 mm 281.0 W/m2 CLR
17:41 -2.9 °C -9.6 °C 34371.3 hPa SSE 41.7 km/h 41.7 km/h 48 % 0 mm 424.0 W/m2 CLR
17:46 -2.9 °C -9.5 °C 34371.3 hPa SE 44.7 km/h 44.7 km/h 48 % 0 mm 341.0 W/m2 CLR
17:51 -3 °C -9.5 °C 34371.3 hPa SE 41.7 km/h 41.7 km/h 49 % 0 mm 292.0 W/m2 CLR
17:56 -3.1 °C -9.6 °C 34371.3 hPa SE 29.8 km/h 29.8 km/h 49 % 0 mm 292.0 W/m2 CLR
18:01 -3 °C -9.5 °C 34371.3 hPa SE 41.7 km/h 41.7 km/h 49 % 0 mm 313.0 W/m2 CLR
18:06 -3.1 °C -9.6 °C 34371.3 hPa SE 38.8 km/h 38.8 km/h 49 % 0 mm 497.0 W/m2 CLR
18:11 -3 °C -9.5 °C 34371.3 hPa SE 47.6 km/h 47.6 km/h 49 % 0 mm 580.0 W/m2 CLR
18:16 -2.9 °C -9.6 °C 34371.3 hPa SE 47.6 km/h 47.6 km/h 48 % 0 mm 564.0 W/m2 CLR
18:21 -3 °C -9.4 °C 34371.3 hPa SE 44.7 km/h 44.7 km/h 49 % 0 mm 541.0 W/m2 CLR
18:26 -2.9 °C -9.6 °C 34371.3 hPa SE 47.6 km/h 47.6 km/h 48 % 0 mm 506.0 W/m2 CLR
18:31 -3 °C -9.6 °C 34361.1 hPa SSE 44.7 km/h 44.7 km/h 48 % 0 mm 471.0 W/m2 CLR
18:36 -2.9 °C -9.9 °C 34361.1 hPa SSE 44.7 km/h 44.7 km/h 46 % 0 mm 281.0 W/m2 CLR
18:41 -3.1 °C -9.8 °C 34371.3 hPa SE 44.7 km/h 44.7 km/h 47 % 0 mm 200.0 W/m2 CLR
18:46 -3.2 °C -10 °C 34361.1 hPa SE 41.7 km/h 41.7 km/h 47 % 0 mm 162.0 W/m2 CLR
18:51 -3.3 °C -9.9 °C 34361.1 hPa SSE 33.6 km/h 33.6 km/h 48 % 0 mm 221.0 W/m2 CLR
18:56 -3.3 °C -10.1 °C 34361.1 hPa SSE 31.1 km/h 31.1 km/h 47 % 0 mm 339.0 W/m2 CLR
19:01 -3.3 °C -10.1 °C 34361.1 hPa SSE 41.4 km/h 41.4 km/h 47 % 0 mm 311.0 W/m2 CLR
19:06 -3.3 °C -10.1 °C 34361.1 hPa SSE 38.8 km/h 38.8 km/h 47 % 0 mm 383.0 W/m2 CLR
19:11 -3.3 °C -9.8 °C 34361.1 hPa ESE 29.8 km/h 29.8 km/h 49 % 0 mm 388.0 W/m2 CLR
19:16 -3.5 °C -9.9 °C 34361.1 hPa SE 38.8 km/h 38.8 km/h 49 % 0 mm 381.0 W/m2 CLR
19:21 -3.4 °C -9.8 °C 34361.1 hPa ESE 20.9 km/h 20.9 km/h 49 % 0 mm 336.0 W/m2 CLR
19:26 -3.5 °C -9.8 °C 34361.1 hPa SE 29.8 km/h 29.8 km/h 50 % 0 mm 237.0 W/m2 CLR
19:31 -3.6 °C -9.8 °C 34361.1 hPa ESE 26.9 km/h 26.9 km/h 50 % 0 mm 207.0 W/m2 CLR
19:36 -3.7 °C -9.9 °C 34361.1 hPa ESE 29.8 km/h 29.8 km/h 50 % 0 mm 141.0 W/m2 CLR
19:41 -3.8 °C -10.1 °C 34361.1 hPa ESE 32.8 km/h 32.8 km/h 50 % 0 mm 121.0 W/m2 CLR
19:46 -3.9 °C -10.1 °C 34361.1 hPa SE 44.7 km/h 44.7 km/h 50 % 0 mm 128.0 W/m2 CLR
19:51 -3.9 °C -10.1 °C 34361.1 hPa SE 29.8 km/h 29.8 km/h 50 % 0 mm 90.0 W/m2 CLR
19:56 -3.9 °C -9.9 °C 34361.1 hPa SE 33.6 km/h 33.6 km/h 51 % 0 mm 72.0 W/m2 CLR
20:01 -4.1 °C -10.1 °C 34361.1 hPa ESE 31.1 km/h 31.1 km/h 51 % 0 mm 69.0 W/m2 FEW
20:06 -4.1 °C -10.2 °C 34361.1 hPa ESE 32.8 km/h 32.8 km/h 51 % 0 mm 58.0 W/m2 FEW
20:11 -4.2 °C -10.2 °C 34361.1 hPa SE 29.8 km/h 29.8 km/h 51 % 0 mm 51.0 W/m2 SCT
20:16 -4.2 °C -10.2 °C 34361.1 hPa SE 29.8 km/h 29.8 km/h 51 % 0 mm 47.0 W/m2 SCT
20:21 -4.3 °C -10.3 °C 34371.3 hPa SE 29.8 km/h 29.8 km/h 51 % 0 mm 44.0 W/m2 SCT
20:26 -4.4 °C -10.4 °C 34371.3 hPa SE 29.8 km/h 29.8 km/h 51 % 0 mm 40.0 W/m2 BKN
20:31 -4.4 °C -10.4 °C 34371.3 hPa SE 29.8 km/h 29.8 km/h 51 % 0 mm 37.0 W/m2 BKN
20:36 -4.5 °C -10.4 °C 34371.3 hPa ESE 17.9 km/h 17.9 km/h 51 % 0 mm 33.0 W/m2 BKN
20:41 -4.6 °C -10.5 °C 34371.3 hPa SSE 23.8 km/h 23.8 km/h 51 % 0 mm 32.0 W/m2 BKN
20:46 -4.6 °C -10.4 °C 34371.3 hPa SE 11.9 km/h 11.9 km/h 52 % 0 mm 28.0 W/m2 BKN
20:51 -4.7 °C -10.4 °C 34371.3 hPa SE 15 km/h 15 km/h 52 % 0 mm 23.0 W/m2 BKN
20:56 -4.7 °C -10.5 °C 34371.3 hPa SE 20.8 km/h 20.8 km/h 52 % 0 mm 19.0 W/m2 BKN
21:01 -4.8 °C -10.4 °C 34384.8 hPa SSE 9 km/h 9 km/h 53 % 0 mm 14.0 W/m2 BKN
21:06 -4.8 °C -10.4 °C 34371.3 hPa ESE 7.7 km/h 7.7 km/h 53 % 0 mm 11.0 W/m2 BKN
21:11 -4.9 °C -10.4 °C 34384.8 hPa Calm     54 % 0 mm 5.0 W/m2 BKN
21:16 -5 °C -10.4 °C 34384.8 hPa Calm     54 % 0 mm 0.0 W/m2 OVC
21:21 -5.1 °C -10.3 °C 34384.8 hPa Calm     55 % 0 mm 0.0 W/m2 OVC
21:26 -5.2 °C -10.4 °C 34384.8 hPa Calm     55 % 0 mm 0.0 W/m2 OVC
21:31 -5.2 °C -10.3 °C 34384.8 hPa Calm     56 % 0 mm 0.0 W/m2 OVC
21:36 -5.3 °C -10.4 °C 34384.8 hPa Calm     56 % 0 mm 0.0 W/m2 CLR
21:41 -5.4 °C -10.4 °C 34384.8 hPa Calm     57 % 0 mm 0.0 W/m2 CLR
21:46 -5.5 °C -10.4 °C 34384.8 hPa Calm     57 % 0 mm 0.0 W/m2 CLR
21:51 -5.6 °C -10.4 °C 34384.8 hPa Calm     58 % 0 mm 0.0 W/m2 CLR
21:56 -5.7 °C -10.4 °C 34384.8 hPa Calm     58 % 0 mm 0.0 W/m2 CLR
22:01 -5.7 °C -10.4 °C 34384.8 hPa Calm     58 % 0 mm 0.0 W/m2 CLR
22:06 -5.7 °C -10.5 °C 34395 hPa Calm     58 % 0 mm 0.0 W/m2 CLR
22:11 -5.7 °C -10.5 °C 34395 hPa Calm     58 % 0 mm 0.0 W/m2 CLR
22:16 -5.7 °C -10.5 °C 34395 hPa Calm     58 % 0 mm 0.0 W/m2 CLR
22:21 -5.8 °C -10.6 °C 34395 hPa Calm     58 % 0 mm 0.0 W/m2 CLR
22:26 -5.8 °C -10.6 °C 34395 hPa Calm     58 % 0 mm 0.0 W/m2 CLR
22:31 -5.9 °C -10.5 °C 34395 hPa Calm     59 % 0 mm 0.0 W/m2 CLR
22:36 -5.9 °C -10.6 °C 34395 hPa Calm     59 % 0 mm 0.0 W/m2 CLR
22:41 -6 °C -10.6 °C 34405.1 hPa Calm     59 % 0 mm 0.0 W/m2 CLR
22:47 -6.1 °C -10.7 °C 34405.1 hPa Calm     59 % 0 mm 0.0 W/m2 CLR
22:52 -6.1 °C -10.6 °C 34395 hPa Calm     60 % 0 mm 0.0 W/m2 CLR
22:57 -6.2 °C -10.5 °C 34395 hPa SE 6 km/h   61 % 0 mm 0.0 W/m2 CLR
23:02 -6.3 °C -10.6 °C 34395 hPa SSE 6 km/h   61 % 0 mm 0.0 W/m2 CLR
23:07 -6.3 °C -10.6 °C 34405.1 hPa Calm     62 % 0 mm 0.0 W/m2 CLR
23:12 -6.4 °C -10.6 °C 34405.1 hPa Calm     62 % 0 mm 0.0 W/m2 CLR
23:17 -6.4 °C -10.5 °C 34405.1 hPa Calm     63 % 0 mm 0.0 W/m2 CLR
23:22 -6.5 °C -10.4 °C 34405.1 hPa Calm     64 % 0 mm 0.0 W/m2 CLR
23:27 -6.5 °C -10.4 °C 34405.1 hPa ESE 9 km/h 9 km/h 64 % 0 mm 0.0 W/m2 CLR
23:32 -6.5 °C -10.2 °C 34405.1 hPa ESE 9 km/h 9 km/h 65 % 0 mm 0.0 W/m2 CLR
23:37 -6.5 °C -10.2 °C 34418.7 hPa Calm     65 % 0 mm 0.0 W/m2 CLR
23:42 -6.5 °C -10.3 °C 34418.7 hPa Calm     65 % 0 mm 0.0 W/m2 CLR
23:47 -6.6 °C -10.2 °C 34418.7 hPa Calm     66 % 0 mm 0.0 W/m2 CLR
23:52 -6.6 °C -10.2 °C 34418.7 hPa Calm     66 % 0 mm 0.0 W/m2 CLR
23:57 -6.6 °C -10.3 °C 34405.1 hPa Calm     66 % 0 mm 0.0 W/m2 CLR
Lo Temps de Massalio
Compliments of Weather Underground - 1.25 mb